Accueil
METAR-TAF:

METAR-TAF

Aéroports :

Hope, Colombie-Britannique, Canada

latitude: 49-22N, longitude: 121-29W, altitude: 39 m

Observation

Le bulletin a été fait il y a 11 minutes, à 15:00 UTC
Vent 5 kt de est
Température 21°C
Humidité 60%
Pression 1015 hPa
Visibilité: 14.5 km
Ciel clair

METAR: CYHE 201500Z AUTO 09005KT 9SM CLR 21/13 A2998 RMK SLP153 DENSITY ALT 700FT

Heure: 08:11 (15:11 UTC)


TAF: absent

Observations et prévisions météorologiques de plus de 4000 aéroports (messages METAR et TAF).

Les stations disponibles sont représentées par des disques jaunes et rouges sur la carte.

Passer la souris dessus pour voir le nom de la station.

Cliquer dessus pour voir les observations et prévisions météorologiques.

Pour changer de carte: cliquez sur les boutons verts avec une croix noire pour zoomer, sur le bouton vert avec un tiret pour effectuer un zoom arrière, ou sur les flèches vertes pour les cartes adjacentes.


METAR-TAF: